Time,TemperatureF,DewpointF,PressureIn,WindDirection,WindDirectionDegrees,WindSpeedMPH,WindSpeedGustMPH,Humidity,HourlyPrecipIn,Conditions,Clouds,dailyrainin,SoftwareType,DateUTC
2013-01-31 00:11:00,47.4,44.0,30.39,SSE,160,8.0,8.0,89,0.00,,,0.00,weatherlink.com 1.10,2013-01-31 08:11:00,
2013-01-31 00:26:00,47.6,44.0,30.39,SSE,155,3.0,6.0,88,0.00,,,0.00,weatherlink.com 1.10,2013-01-31 08:26:00,
2013-01-31 00:41:00,47.8,44.0,30.39,ESE,113,0.0,3.0,87,0.00,,,0.00,weatherlink.com 1.10,2013-01-31 08:41:00,
2013-01-31 01:11:00,46.1,43.0,30.38,North,9,3.0,5.0,90,0.00,,,0.00,weatherlink.com 1.10,2013-01-31 09:11:00,
2013-01-31 01:26:00,46.9,43.0,30.37,North,360,5.0,6.0,87,0.00,,,0.00,weatherlink.com 1.10,2013-01-31 09:26:00,
2013-01-31 01:41:00,48.2,44.0,30.38,NW,318,1.0,7.0,85,0.00,,,0.00,weatherlink.com 1.10,2013-01-31 09:41:00,
2013-01-31 01:56:00,48.5,44.0,30.38,West,261,0.0,8.0,83,0.00,,,0.00,weatherlink.com 1.10,2013-01-31 09:56:00,
2013-01-31 02:11:00,47.4,43.0,30.38,WNW,286,1.0,7.0,85,0.00,,,0.00,weatherlink.com 1.10,2013-01-31 10:11:00,
2013-01-31 02:26:00,47.0,43.0,30.38,SW,219,3.0,14.0,87,0.00,,,0.00,weatherlink.com 1.10,2013-01-31 10:26:00,
2013-01-31 02:41:00,46.6,44.0,30.38,West,271,3.0,16.0,89,0.00,,,0.00,weatherlink.com 1.10,2013-01-31 10:41:00,
2013-01-31 02:56:00,46.2,44.0,30.38,WSW,250,7.0,13.0,90,0.00,,,0.00,weatherlink.com 1.10,2013-01-31 10:56:00,
2013-01-31 03:11:00,46.0,43.0,30.38,SSW,198,5.0,9.0,90,0.00,,,0.00,weatherlink.com 1.10,2013-01-31 11:11:00,
2013-01-31 03:26:00,46.3,44.0,30.38,West,261,2.0,12.0,90,0.00,,,0.00,weatherlink.com 1.10,2013-01-31 11:26:00,
2013-01-31 03:41:00,46.6,44.0,30.38,SSW,213,2.0,16.0,89,0.00,,,0.00,weatherlink.com 1.10,2013-01-31 11:41:00,
2013-01-31 03:56:00,46.3,43.0,30.37,West,269,5.0,12.0,89,0.00,,,0.00,weatherlink.com 1.10,2013-01-31 11:56:00,
2013-01-31 04:11:00,45.9,43.0,30.37,West,281,4.0,11.0,90,0.00,,,0.00,weatherlink.com 1.10,2013-01-31 12:11:00,
2013-01-31 04:27:00,45.7,43.0,30.37,WNW,289,3.0,12.0,90,0.00,,,0.00,weatherlink.com 1.10,2013-01-31 12:27:00,
2013-01-31 04:41:00,45.8,43.0,30.37,WSW,247,4.0,12.0,90,0.00,,,0.00,weatherlink.com 1.10,2013-01-31 12:41:00,
2013-01-31 04:56:00,45.9,43.0,30.37,WSW,252,7.0,11.0,90,0.00,,,0.00,weatherlink.com 1.10,2013-01-31 12:56:00,
2013-01-31 05:11:00,46.0,43.0,30.36,WSW,256,5.0,10.0,89,0.00,,,0.00,weatherlink.com 1.10,2013-01-31 13:11:00,
2013-01-31 05:26:00,46.3,43.0,30.36,West,272,5.0,11.0,89,0.00,,,0.00,weatherlink.com 1.10,2013-01-31 13:26:00,
2013-01-31 05:41:00,46.2,43.0,30.36,West,260,7.0,13.0,89,0.00,,,0.00,weatherlink.com 1.10,2013-01-31 13:41:00,
2013-01-31 05:56:00,45.9,43.0,30.36,West,259,6.0,14.0,89,0.00,,,0.00,weatherlink.com 1.10,2013-01-31 13:56:00,
2013-01-31 06:11:00,45.4,43.0,30.36,WNW,287,9.0,12.0,91,0.00,,,0.00,weatherlink.com 1.10,2013-01-31 14:11:00,
2013-01-31 06:26:00,45.9,43.0,30.36,WSW,245,10.0,15.0,89,0.00,,,0.00,weatherlink.com 1.10,2013-01-31 14:26:00,
2013-01-31 06:42:00,45.8,43.0,30.36,West,264,9.0,14.0,89,0.00,,,0.00,weatherlink.com 1.10,2013-01-31 14:42:00,
2013-01-31 06:57:00,45.8,43.0,30.37,WSW,249,7.0,15.0,90,0.00,,,0.00,weatherlink.com 1.10,2013-01-31 14:57:00,
2013-01-31 07:12:00,45.6,43.0,30.37,West,261,8.0,14.0,90,0.00,,,0.00,weatherlink.com 1.10,2013-01-31 15:12:00,
2013-01-31 07:27:00,45.7,43.0,30.37,WSW,245,8.0,10.0,90,0.00,,,0.00,weatherlink.com 1.10,2013-01-31 15:27:00,
2013-01-31 07:42:00,45.9,43.0,30.37,WSW,252,5.0,10.0,90,0.00,,,0.00,weatherlink.com 1.10,2013-01-31 15:42:00,
2013-01-31 07:57:00,45.8,43.0,30.38,West,265,6.0,8.0,90,0.00,,,0.00,weatherlink.com 1.10,2013-01-31 15:57:00,
2013-01-31 08:12:00,45.6,43.0,30.38,WSW,258,5.0,9.0,90,0.00,,,0.00,weatherlink.com 1.10,2013-01-31 16:12:00,
2013-01-31 08:27:00,46.5,44.0,30.38,West,269,4.0,10.0,89,0.00,,,0.00,weatherlink.com 1.10,2013-01-31 16:27:00,
2013-01-31 08:42:00,47.7,44.0,30.38,SSW,209,4.0,9.0,88,0.00,,,0.00,weatherlink.com 1.10,2013-01-31 16:42:00,
2013-01-31 08:57:00,48.0,44.0,30.38,SW,228,1.0,7.0,86,0.00,,,0.00,weatherlink.com 1.10,2013-01-31 16:57:00,
2013-01-31 09:12:00,47.9,44.0,30.39,WSW,240,3.0,6.0,86,0.00,,,0.00,weatherlink.com 1.10,2013-01-31 17:12:00,
2013-01-31 09:27:00,47.5,44.0,30.38,WSW,248,3.0,7.0,86,0.00,,,0.00,weatherlink.com 1.10,2013-01-31 17:27:00,
2013-01-31 09:42:00,48.4,45.0,30.38,WSW,250,2.0,9.0,87,0.00,,,0.00,weatherlink.com 1.10,2013-01-31 17:42:00,
2013-01-31 09:57:00,49.4,45.0,30.38,SW,225,3.0,8.0,85,0.00,,,0.00,weatherlink.com 1.10,2013-01-31 17:57:00,
2013-01-31 10:12:00,50.1,46.0,30.39,West,263,2.0,7.0,84,0.00,,,0.00,weatherlink.com 1.10,2013-01-31 18:12:00,
2013-01-31 10:27:00,50.2,45.0,30.39,SSW,213,3.0,6.0,82,0.00,,,0.00,weatherlink.com 1.10,2013-01-31 18:27:00,
2013-01-31 10:42:00,50.3,45.0,30.39,SW,230,2.0,7.0,82,0.00,,,0.00,weatherlink.com 1.10,2013-01-31 18:42:00,
2013-01-31 10:57:00,49.2,44.0,30.38,SSW,193,5.0,7.0,81,0.00,,,0.00,weatherlink.com 1.10,2013-01-31 18:57:00,
2013-01-31 11:12:00,48.5,43.0,30.38,SSW,210,5.0,9.0,82,0.00,,,0.00,weatherlink.com 1.10,2013-01-31 19:12:00,
2013-01-31 11:27:00,48.1,43.0,30.37,West,268,2.0,7.0,82,0.00,,,0.00,weatherlink.com 1.10,2013-01-31 19:27:00,
2013-01-31 11:42:00,48.6,43.0,30.37,SW,221,2.0,12.0,80,0.00,,,0.00,weatherlink.com 1.10,2013-01-31 19:42:00,
2013-01-31 11:57:00,48.5,44.0,30.36,SSW,204,1.0,9.0,84,0.00,,,0.00,weatherlink.com 1.10,2013-01-31 19:57:00,
2013-01-31 12:12:00,49.3,44.0,30.36,SSW,195,3.0,9.0,82,0.00,,,0.00,weatherlink.com 1.10,2013-01-31 20:12:00,
2013-01-31 12:27:00,51.5,46.0,30.35,SW,214,3.0,11.0,81,0.00,,,0.00,weatherlink.com 1.10,2013-01-31 20:27:00,
2013-01-31 12:42:00,50.3,44.0,30.35,SW,227,5.0,8.0,79,0.00,,,0.00,weatherlink.com 1.10,2013-01-31 20:42:00,
2013-01-31 12:57:00,50.0,44.0,30.34,SSW,201,4.0,11.0,79,0.00,,,0.00,weatherlink.com 1.10,2013-01-31 20:57:00,
2013-01-31 13:12:00,49.1,43.0,30.34,South,188,6.0,11.0,79,0.00,,,0.00,weatherlink.com 1.10,2013-01-31 21:12:00,
2013-01-31 13:27:00,49.3,42.0,30.34,SSW,205,4.0,11.0,77,0.00,,,0.00,weatherlink.com 1.10,2013-01-31 21:27:00,
2013-01-31 13:42:00,50.1,42.0,30.33,SSW,198,5.0,13.0,75,0.00,,,0.00,weatherlink.com 1.10,2013-01-31 21:42:00,
2013-01-31 13:57:00,50.3,43.0,30.33,SW,225,3.0,16.0,75,0.00,,,0.00,weatherlink.com 1.10,2013-01-31 21:57:00,
2013-01-31 14:12:00,50.3,42.0,30.33,WSW,254,7.0,14.0,74,0.00,,,0.00,weatherlink.com 1.10,2013-01-31 22:12:00,
2013-01-31 14:27:00,50.5,43.0,30.32,WSW,254,6.0,13.0,74,0.00,,,0.00,weatherlink.com 1.10,2013-01-31 22:27:00,
2013-01-31 14:42:00,50.7,43.0,30.32,WNW,295,5.0,11.0,75,0.00,,,0.00,weatherlink.com 1.10,2013-01-31 22:42:00,
2013-01-31 14:57:00,51.3,43.0,30.33,WNW,296,3.0,13.0,74,0.00,,,0.00,weatherlink.com 1.10,2013-01-31 22:57:00,
2013-01-31 15:12:00,51.0,43.0,30.33,SW,223,3.0,8.0,75,0.00,,,0.00,weatherlink.com 1.10,2013-01-31 23:12:00,
2013-01-31 15:27:00,51.0,43.0,30.33,SSW,192,2.0,9.0,74,0.00,,,0.00,weatherlink.com 1.10,2013-01-31 23:27:00,
2013-01-31 15:42:00,52.8,44.0,30.33,West,273,2.0,7.0,72,0.00,,,0.00,weatherlink.com 1.10,2013-01-31 23:42:00,
2013-01-31 15:57:00,51.9,44.0,30.33,SW,219,3.0,6.0,74,0.00,,,0.00,weatherlink.com 1.10,2013-01-31 23:57:00,
2013-01-31 16:12:00,50.3,42.0,30.33,WNW,298,2.0,12.0,74,0.00,,,0.00,weatherlink.com 1.10,2013-02-01 00:12:00,
2013-01-31 16:27:00,50.2,43.0,30.32,WSW,245,0.0,9.0,75,0.00,,,0.00,weatherlink.com 1.10,2013-02-01 00:27:00,
2013-01-31 16:42:00,50.0,42.0,30.33,South,191,1.0,7.0,73,0.00,,,0.00,weatherlink.com 1.10,2013-02-01 00:42:00,
2013-01-31 16:57:00,49.6,42.0,30.32,NW,325,1.0,5.0,75,0.00,,,0.00,weatherlink.com 1.10,2013-02-01 00:57:00,
2013-01-31 17:12:00,49.0,42.0,30.32,WSW,246,0.0,4.0,77,0.00,,,0.00,weatherlink.com 1.10,2013-02-01 01:12:00,
2013-01-31 17:27:00,48.1,42.0,30.33,West,273,2.0,5.0,80,0.00,,,0.00,weatherlink.com 1.10,2013-02-01 01:27:00,
2013-01-31 17:42:00,48.3,42.0,30.32,WSW,250,0.0,7.0,79,0.00,,,0.00,weatherlink.com 1.10,2013-02-01 01:42:00,
2013-01-31 17:57:00,48.2,43.0,30.33,WNW,296,1.0,6.0,81,0.00,,,0.00,weatherlink.com 1.10,2013-02-01 01:57:00,
2013-01-31 18:14:00,48.2,43.0,30.32,West,265,1.0,6.0,82,0.00,,,0.00,weatherlink.com 1.10,2013-02-01 02:14:00,
2013-01-31 18:27:00,47.8,43.0,30.33,WNW,290,3.0,5.0,83,0.00,,,0.00,weatherlink.com 1.10,2013-02-01 02:27:00,
2013-01-31 18:42:00,47.6,43.0,30.33,WSW,255,1.0,6.0,84,0.00,,,0.00,weatherlink.com 1.10,2013-02-01 02:42:00,
2013-01-31 18:57:00,47.3,43.0,30.33,WNW,294,2.0,6.0,84,0.00,,,0.00,weatherlink.com 1.10,2013-02-01 02:57:00,
2013-01-31 19:12:00,47.1,43.0,30.32,West,263,4.0,6.0,85,0.00,,,0.00,weatherlink.com 1.10,2013-02-01 03:12:00,
2013-01-31 19:27:00,46.7,43.0,30.32,WSW,257,3.0,6.0,85,0.00,,,0.00,weatherlink.com 1.10,2013-02-01 03:27:00,
2013-01-31 19:42:00,45.8,42.0,30.33,NNW,341,3.0,4.0,86,0.00,,,0.00,weatherlink.com 1.10,2013-02-01 03:42:00,
2013-01-31 19:57:00,44.9,42.0,30.32,WNW,288,1.0,2.0,88,0.00,,,0.00,weatherlink.com 1.10,2013-02-01 03:57:00,
2013-01-31 20:12:00,44.8,42.0,30.33,WNW,303,1.0,5.0,88,0.00,,,0.00,weatherlink.com 1.10,2013-02-01 04:12:00,
2013-01-31 20:27:00,44.7,41.0,30.32,West,261,6.0,8.0,88,0.00,,,0.00,weatherlink.com 1.10,2013-02-01 04:27:00,
2013-01-31 20:42:00,44.1,41.0,30.33,West,277,2.0,7.0,88,0.00,,,0.00,weatherlink.com 1.10,2013-02-01 04:42:00,
2013-01-31 20:57:00,43.8,41.0,30.33,SSW,198,0.0,4.0,91,0.00,,,0.00,weatherlink.com 1.10,2013-02-01 04:57:00,
2013-01-31 21:13:00,44.2,42.0,30.33,SW,227,2.0,5.0,91,0.00,,,0.00,weatherlink.com 1.10,2013-02-01 05:13:00,
2013-01-31 21:27:00,43.2,41.0,30.33,NW,304,1.0,3.0,91,0.00,,,0.00,weatherlink.com 1.10,2013-02-01 05:27:00,
2013-01-31 21:42:00,42.7,41.0,30.33,WSW,257,3.0,4.0,92,0.00,,,0.00,weatherlink.com 1.10,2013-02-01 05:42:00,
2013-01-31 21:57:00,43.8,41.0,30.33,NNW,344,2.0,7.0,89,0.00,,,0.00,weatherlink.com 1.10,2013-02-01 05:57:00,
2013-01-31 22:14:00,42.5,40.0,30.33,NNW,346,1.0,4.0,92,0.00,,,0.00,weatherlink.com 1.10,2013-02-01 06:14:00,
2013-01-31 22:28:00,42.6,40.0,30.33,SSW,202,2.0,4.0,91,0.00,,,0.00,weatherlink.com 1.10,2013-02-01 06:28:00,
2013-01-31 22:43:00,44.3,42.0,30.33,South,188,3.0,8.0,92,0.00,,,0.00,weatherlink.com 1.10,2013-02-01 06:43:00,
2013-01-31 22:57:00,44.8,42.0,30.33,SW,235,3.0,7.0,91,0.00,,,0.00,weatherlink.com 1.10,2013-02-01 06:57:00,
2013-01-31 23:13:00,44.9,43.0,30.34,West,263,5.0,7.0,91,0.00,,,0.00,weatherlink.com 1.10,2013-02-01 07:13:00,
2013-01-31 23:28:00,44.8,43.0,30.34,SW,232,1.0,6.0,92,0.00,,,0.00,weatherlink.com 1.10,2013-02-01 07:28:00,
2013-01-31 23:43:00,44.9,43.0,30.34,WSW,245,4.0,7.0,91,0.00,,,0.00,weatherlink.com 1.10,2013-02-01 07:43:00,
2013-01-31 23:58:00,44.6,42.0,30.34,West,276,5.0,7.0,91,0.00,,,0.00,weatherlink.com 1.10,2013-02-01 07:58:00,